Total_Precipitation_Accumulation
0.96 1.00 1.02 1.03 1.03 1.05 1.02 0.94 0.96 0.97 0.96 0.92 0.93 0.98 1.01 1.04 1.07 1.11 1.12 1.19 1.23 1.26 1.30 1.42 1.53 1.66 1.65 1.53 1.57 1.67 1.80 1.91 1.72 1.68 1.65 1.46 1.36 1.22 1.12 1.06 0.94 0.88 0.75
0.87 0.93 1.01 1.00 0.96 0.93 0.88 0.84 0.87 0.90 0.91 0.88 0.89 0.92 0.94 0.99 1.06 1.13 1.16 1.20 1.21 1.19 1.23 1.34 1.40 1.47 1.56 1.49 1.42 1.43 1.59 1.75 1.74 1.75 1.87 1.79 1.57 1.41 1.31 1.19 0.97 0.84 0.80
0.86 0.93 0.96 0.96 0.94 0.87 0.77 0.76 0.76 0.78 0.82 0.80 0.77 0.77 0.81 0.89 1.00 1.05 1.09 1.12 1.19 1.26 1.23 1.23 1.23 1.30 1.47 1.58 1.55 1.50 1.54 1.65 1.77 1.77 1.88 1.93 1.72 1.53 1.53 1.36 1.18 1.17 0.88
0.77 0.81 0.81 0.80 0.81 0.81 0.78 0.73 0.70 0.72 0.75 0.76 0.74 0.77 0.79 0.83 0.90 0.93 0.94 0.94 0.95 1.00 1.03 1.02 1.00 1.02 1.18 1.44 1.51 1.62 1.65 1.64 1.74 1.78 1.88 1.98 2.02 1.81 1.75 1.60 1.47 1.37 1.17
0.72 0.74 0.75 0.76 0.76 0.75 0.72 0.67 0.65 0.64 0.61 0.69 0.74 0.76 0.79 0.80 0.73 0.76 0.78 0.73 0.73 0.70 0.71 0.74 0.75 0.78 0.79 0.91 1.10 1.37 1.57 1.64 1.68 1.79 1.88 1.97 2.01 2.06 1.82 1.68 1.60 1.56 1.46
0.58 0.60 0.71 0.76 0.75 0.73 0.65 0.61 0.60 0.62 0.65 0.71 0.74 0.72 0.69 0.61 0.65 0.66 0.66 0.65 0.65 0.63 0.61 0.59 0.57 0.56 0.57 0.63 0.69 0.87 1.12 1.37 1.63 1.81 1.87 1.94 2.00 2.05 2.00 1.85 1.75 1.64 1.62
0.52 0.54 0.57 0.64 0.70 0.69 0.60 0.57 0.57 0.59 0.64 0.69 0.72 0.76 0.73 0.73 0.70 0.67 0.70 0.67 0.65 0.63 0.63 0.61 0.48 0.41 0.46 0.50 0.54 0.58 0.70 0.83 1.00 1.39 1.68 1.74 1.82 1.91 2.06 2.01 1.95 1.92 1.85
0.55 0.57 0.56 0.57 0.64 0.69 0.65 0.61 0.63 0.65 0.66 0.70 0.74 0.77 0.81 0.76 0.71 0.67 0.67 0.61 0.64 0.67 0.64 0.63 0.58 0.52 0.51 0.55 0.61 0.60 0.56 0.61 0.67 0.78 0.95 1.14 1.35 1.67 1.92 2.03 2.14 2.18 2.21
0.58 0.60 0.59 0.59 0.63 0.68 0.68 0.71 0.75 0.80 0.74 0.69 0.76 0.84 0.89 0.86 0.76 0.66 0.65 0.61 0.65 0.68 0.63 0.62 0.63 0.57 0.53 0.45 0.52 0.61 0.61 0.60 0.57 0.62 0.67 0.83 0.98 1.18 1.45 1.66 1.80 1.97 2.24
0.60 0.60 0.60 0.66 0.72 0.75 0.82 0.92 0.99 1.01 0.94 0.89 0.86 0.90 0.92 0.95 0.84 0.68 0.63 0.62 0.69 0.75 0.80 0.77 0.70 0.63 0.56 0.50 0.50 0.60 0.65 0.64 0.66 0.68 0.65 0.64 0.69 0.80 0.98 1.17 1.31 1.53 1.79
0.74 0.77 0.77 0.81 0.91 0.98 1.13 1.22 1.27 1.23 1.26 1.24 1.17 1.14 1.15 1.08 0.99 0.77 0.69 0.68 0.79 0.93 0.94 0.90 0.85 0.74 0.59 0.53 0.51 0.56 0.60 0.65 0.73 0.80 0.84 0.82 0.78 0.74 0.79 0.92 1.11 1.21 1.33
0.95 0.95 0.98 1.06 0.99 1.02 1.25 1.33 1.40 1.46 1.43 1.38 1.39 1.34 1.29 1.24 1.06 0.89 0.78 0.79 0.85 1.01 1.08 1.03 0.93 0.81 0.65 0.57 0.53 0.51 0.52 0.52 0.59 0.69 0.76 0.81 0.81 0.76 0.76 0.87 1.08 1.25 1.24
1.14 1.16 1.20 1.24 1.31 1.35 1.47 1.52 1.53 1.52 1.49 1.45 1.47 1.46 1.41 1.36 1.24 0.98 0.88 0.85 0.84 0.92 0.99 0.98 0.91 0.77 0.68 0.61 0.59 0.55 0.49 0.50 0.58 0.64 0.67 0.75 0.79 0.78 0.81 0.92 1.08 1.26 1.28
1.30 1.31 1.40 1.51 1.53 1.60 1.71 1.70 1.67 1.63 1.60 1.61 1.61 1.58 1.54 1.52 1.47 1.30 1.08 0.96 0.90 0.86 0.89 0.94 0.91 0.81 0.70 0.68 0.68 0.61 0.55 0.60 0.67 0.67 0.70 0.77 0.87 0.91 0.93 0.93 1.04 1.15 1.24
1.46 1.50 1.62 1.72 1.79 1.84 1.75 1.73 1.72 1.75 1.69 1.67 1.68 1.65 1.66 1.60 1.49 1.36 1.26 1.18 1.12 1.07 1.04 1.08 1.09 1.01 0.92 0.88 0.88 0.86 0.83 0.79 0.74 0.76 0.81 0.87 0.94 0.97 0.96 1.00 1.05 1.09 1.06
1.56 1.60 1.68 1.72 1.82 1.83 1.82 1.73 1.60 1.52 1.47 1.39 1.42 1.43 1.43 1.39 1.34 1.20 1.11 1.06 1.07 1.12 1.11 1.13 1.21 1.25 1.18 1.10 1.06 1.04 1.03 0.96 0.92 0.93 0.96 0.95 0.95 0.95 0.95 1.02 1.10 1.10 1.07
1.61 1.65 1.66 1.65 1.72 1.79 1.81 1.79 1.69 1.59 1.45 1.32 1.25 1.18 1.14 1.13 1.14 1.13 1.12 1.11 1.08 1.09 1.09 1.18 1.30 1.35 1.37 1.35 1.27 1.18 1.13 1.06 1.00 1.00 0.99 1.00 0.99 1.03 1.06 1.08 1.12 1.14 1.11
1.56 1.60 1.56 1.54 1.60 1.68 1.72 1.77 1.80 1.75 1.68 1.54 1.38 1.27 1.13 1.03 1.02 1.06 1.09 1.10 1.07 1.04 1.07 1.20 1.33 1.40 1.48 1.47 1.35 1.27 1.19 1.10 1.05 1.06 1.09 1.12 1.10 1.11 1.11 1.08 1.09 1.10 1.12
1.49 1.56 1.60 1.64 1.68 1.72 1.77 1.82 1.84 1.78 1.75 1.64 1.45 1.28 1.14 1.03 0.99 1.02 1.01 0.99 1.05 1.11 1.16 1.29 1.36 1.39 1.35 1.31 1.28 1.26 1.19 1.14 1.12 1.11 1.11 1.09 1.07 1.08 1.10 1.12 1.12 1.15 1.12
1.43 1.52 1.62 1.59 1.59 1.64 1.74 1.82 1.84 1.84 1.84 1.80 1.66 1.40 1.18 1.05 1.02 1.06 1.02 1.02 1.07 1.09 1.12 1.22 1.31 1.35 1.33 1.28 1.24 1.18 1.14 1.12 1.09 1.08 1.07 1.04 1.06 1.07 1.04 1.07 1.12 1.10 1.09
1.46 1.43 1.49 1.48 1.50 1.52 1.59 1.66 1.72 1.72 1.67 1.62 1.58 1.42 1.27 1.14 1.13 1.10 1.07 1.07 1.04 1.02 1.09 1.21 1.27 1.26 1.21 1.17 1.16 1.11 1.07 1.07 1.05 1.02 1.05 1.07 1.08 1.07 1.01 1.00 1.01 1.00 0.99
1.50 1.46 1.35 1.36 1.38 1.44 1.48 1.50 1.53 1.50 1.45 1.42 1.39 1.29 1.25 1.18 1.18 1.15 1.08 1.04 0.98 0.94 0.96 1.03 1.11 1.14 1.10 1.06 1.07 1.08 1.06 1.02 1.03 1.00 0.99 0.99 1.02 1.00 0.97 0.97 0.98 1.01 1.04
1.43 1.40 1.30 1.23 1.19 1.27 1.29 1.33 1.35 1.33 1.32 1.30 1.28 1.18 1.11 1.13 1.09 1.00 0.95 0.89 0.86 0.86 0.87 0.92 0.96 0.97 0.94 0.91 0.93 0.97 0.96 0.92 0.92 0.95 0.98 0.99 0.99 0.94 0.93 0.95 0.93 0.97 1.01
1.34 1.33 1.28 1.17 1.06 1.06 1.15 1.27 1.28 1.26 1.25 1.16 1.04 0.96 0.94 0.96 0.90 0.80 0.75 0.75 0.76 0.73 0.73 0.76 0.74 0.72 0.74 0.77 0.80 0.80 0.79 0.75 0.75 0.80 0.82 0.88 0.91 0.88 0.88 0.89 0.86 0.90 1.03
1.11 1.14 1.16 1.11 1.00 0.95 1.05 1.14 1.12 1.05 1.00 0.95 0.86 0.84 0.80 0.77 0.76 0.74 0.71 0.70 0.68 0.67 0.61 0.61 0.63 0.62 0.63 0.63 0.62 0.62 0.59 0.57 0.56 0.59 0.63 0.70 0.78 0.84 0.85 0.87 0.90 0.99 1.08
0.93 0.93 0.94 0.93 0.88 0.84 0.89 0.98 0.99 0.92 0.88 0.81 0.72 0.70 0.71 0.72 0.73 0.73 0.70 0.65 0.63 0.59 0.55 0.56 0.59 0.58 0.55 0.54 0.52 0.46 0.43 0.41 0.42 0.47 0.49 0.56 0.69 0.78 0.81 0.85 0.86 0.91 0.97